Zurück zum Katalog

SL-16 DEB

AktivLEO
NORAD 22605·DEBRIS·🇷🇺 Russia

Gestartet Mar 26, 1993 von Baikonur Cosmodrome

Loading…

Nächste Überflüge (nächste 24 Stunden)

TLE

AktuellSource: Space-Track

Epoche: Sep 13, 2026, 10:11 UTC

1 22605U 93016P   26256.42464387  .00000089  00000-0  99582-4 0  9997
2 22605  70.9975 160.6514 0131699 269.0922 205.7448 13.91182229696555

Verfolge SL-16 DEB in Echtzeit mit AllMySat

Download on the App Store